Location: Unspecified
(35.6961°N, 0.0000°E)
Time: 23:44:40
(UTC+00:00)

Hubble Space Telescope - Pass Details

Date: 30 April 2019
Orbit: 536 x 540 km, 28.5° (Epoch: 21 May)

Event Time Altitude Azimuth Distance (km) Brightness Sun altitude
Exits shadow 03:43:45 28° 201° (SSW) 1,027 1.7 -16.5°
Maximum altitude 03:44:27 29° 182° (S) 987 1.8 -16.4°
Drops below altitude 10° 03:48:04 10° 121° (ESE) 1,786 3.8 -15.8°
Sets 03:50:31 0° 110° (ESE) 2,677 4.9 -15.4°
